Current Version              Previous Version:    01  02  03  04  05  06  07  08  09  10  11  12  13  14  15  16  17  18  19  20  21  22  23  24  25  26  27  28  29  30  
   31  32  33  34  35  36  37  38  39  40  41  42  43  44  45  46  47  48  49  50  51  52  53  54  55  56  57  58  59  60  

[Printable]
449
ASUS44 KLUB 210510
RWRTX
WEST TEXAS WEATHER ROUNDUP
NATIONAL WEATHER SERVICE LUBBOCK TX
1100 PM CST SAT DEC 20 2014

NOTE: "FAIR" INDICATES FEW OR NO CLOUDS BELOW 12,000 FEET WITH NO
SIGNIFICANT WEATHER AND/OR OBSTRUCTIONS TO VISIBILITY.

TXZ004-006>008-010-012-014-016-OKZ002-210600-
TEXAS PANHANDLE/OKLAHOMA PANHANDLE

CITY           SKY/WX    TMP DP  RH WIND       PRES   REMARKS
AMARILLO       CLEAR     36  34  92 S12       30.01R WCI  28
BORGER         CLEAR     39  34  82 S12       29.99F WCI  32
CANADIAN       CLOUDY    40  38  95 S3        30.03S
DALHART        PTCLDY    29  23  78 CALM      29.96F
DUMAS          PTCLDY    28  26  95 S9        29.97F WCI  19
GUYMON         CLEAR     30  26  85 S6        29.97S WCI  24
HEREFORD       CLEAR     36  34  92 S9        30.00S WCI  29
PAMPA          CLEAR     35  34  94 S12       30.01S WCI  27
PERRYTON       CLEAR     35  33  95 S9        30.00S WCI  27
$$

TXZ026-029-035-045-048-210600-
SOUTHERN PANHANDLE/SOUTH PLAINS/ROLLING PLAINS

CITY           SKY/WX    TMP DP  RH WIND       PRES   REMARKS
CHILDRESS      CLOUDY    45  39  79 SE9       30.08F
SEMINOLE       CLEAR     37  32  83 SW6       30.06S WCI  32
LUBBOCK        CLOUDY    41  39  93 S12       30.03S FOG
PLAINVIEW      FOG       40  39  98 S12       30.01S VSB 1/2 WCI  33
SNYDER         CLOUDY    46  42  86 SE12      30.08F
$$

TXZ052-054-060>062-072-078-127-140-154-169-210600-
PERMIAN BASIN/CONCHO VALLEY/BIG COUNTRY/EDWARDS PLATEAU

CITY           SKY/WX    TMP DP  RH WIND       PRES   REMARKS
ABILENE        CLOUDY    45  39  79 S15       30.12S
BIG SPRING     CLOUDY    45  42  90 S9        30.10R
BRADY          CLEAR     39  39 100 SE7       30.13R WCI  34
BROWNWOOD      CLOUDY    39  39 100 CALM      30.16R
JUNCTION       CLOUDY    48  42  80 SE5       30.13S
MIDLAND        CLEAR     44  41  89 S12       30.06S
ODESSA         CLEAR     44  41  89 S9        30.07S
SAN ANGELO     CLOUDY    49  43  80 SE5       30.12R
SONORA         CLOUDY    50  45  81 S10       30.16S
SWEETWATER     CLEAR     45  41  86 SE13      30.11S
WINK           CLEAR     43  38  82 SE9       30.05S
$$

TXZ055-058-074-075-080-082-210600-
FAR WEST/SOUTHWEST MOUNTAINS/TRANS PECOS

CITY           SKY/WX    TMP DP  RH WIND       PRES   REMARKS
ALPINE         MOCLDY    44  28  53 S6        30.15R
DRYDEN           N/A     51  48  89 SE6       30.09R
EL PASO        PTCLDY    43  28  55 SE6       30.10F
FORT STOCKTON  PTCLDY    44  41  89 S7        30.07R
MARFA          MOCLDY    32  23  69 W3        30.12R
PECOS          PTCLDY    40  32  72 E5        30.07R
PRESIDIO       FAIR      50  32  50 N7        30.07R
$$

TXZ014-016-019-021>030-083-210600
TEXAS TECH WEST TEXAS MESONET/TEXAS PANHANDLE/NORTHERN SOUTH PLAINS

CITY           SKY/WX    TMP DP  RH WIND       PRES   REMARKS
ABERNATHY 5ENE   N/A     39  38  98 S12       30.04S WCI  31
AMARILLO 9NNE    N/A     37  34  90 S14       29.98F WCI  28
AMARILLO 7SSE    N/A     35  34  96 S13       30.00F WCI  26
AMHERST 1NE      N/A     33  32  96 S8        30.01F WCI  26
BOOTLEG 11WNW    N/A     29  18  62 SW12      29.99S WCI  20
CANADIAN 6E      N/A     40  38  95 SE8       30.02S WCI  34
CAPROCK CYN SP   N/A     40  38  95 S7        30.05S WCI  35
CHILDRESS 2NNE   N/A     41  39  92 SE10      30.07F
CLARENDON 2WSW   N/A     40  37  89 S12       30.03S WCI  33
CLAUDE 12SW      N/A     38  37  92 S8        30.02R WCI  33
DIMMITT 2NE      N/A     31  30  94 S9        30.00F WCI  23
FLOYDADA 2NNE    N/A     39  38  99 S10       30.02F WCI  32
FRIONA 2NE       N/A     30  28  91 S8        30.00S WCI  23
GOODLETT 3W      N/A     41  39  93 SE7       30.08S
HART 3N          N/A     34  33  96 S7        30.01F WCI  28
HEREFORD 2NW     N/A     33  30  88 S7        29.99S WCI  27
MCLEAN 1E        N/A     38  36  94 S10       30.02S WCI  31
MEMPHIS 1NE      N/A     43  39  85 SE3       30.06F
MULESHOE 2SSW    N/A     34  30  84 S10       30.00F WCI  26
OLTON 6S         N/A     33  31  94 S9        30.01F WCI  25
PALO DURO SP     N/A     37  35  92 S9        30.02S WCI  31
PAMPA 2E         N/A     32  32  99 SE9       30.01S WCI  25
PLAINVIEW 1S     N/A     39  39  99 S14       30.02S WCI  31
SILVERTON 7ESE   N/A     40  40  97 S9        30.03F WCI  35
TULIA 2ENE       N/A     39  39  99 S14       30.02S WCI  31
TURKEY 2WSW      N/A     40  38  93 SE7       30.04F
UMBARGER 3NNE    N/A     35  32  90 S17       29.99F WCI  24
$$

TXZ033>036-039>041-045>048-210600
TEXAS TECH WEST TEXAS MESONET/SOUTH PLAINS

CITY           SKY/WX    TMP DP  RH WIND       PRES   REMARKS
AIKEN 3WSW       N/A     38  38 100 S13       30.03F WCI  30
ANDREWS 2NE      N/A     40  37  89 S7        30.06
ANTON 6SSW       N/A     38  37  97 S10       30.03S WCI  31
BROWNFIELD 2S    N/A     33  33  97 S7        30.05S WCI  27
DENVR CTY 7WNW   N/A     33  25  72 SW8       30.04S WCI  26
GAIL 2ESE        N/A     43  40  89 S5        30.07S
LAMESA 2SE       N/A     38  37  97 S7        30.07S WCI  33
LEVELLAND 4S     N/A     37  35  92 S10       30.03S WCI  30
LUBBOCK 3WNW     N/A     42  40  91 S10       30.04S
MORTON 1ENE      N/A     33  31  92 S7        30.02S WCI  26
ODONNELL 1N      N/A     42  40  92 S7        30.06S
PLAINS 3N        N/A     33  26  73 S3        30.03F
RALLS 1SE        N/A     40  40  98 S8        30.05S
REESE CENTER     N/A     39  38  96 S15       30.03S WCI  31
SEAGRAVES 1SW    N/A     31  30  95 S3        30.04F
SEMINOLE 2NNE    N/A     38  33  81 S8        30.04F WCI  32
SLATON 2NE       N/A     38  37  98 S8        30.05S WCI  32
SNYDER 3E        N/A     46  42  85 SE12      30.07F
SUNDOWN 8SW      N/A     31  30  96 S8        30.03F WCI  24
TAHOKA 3NNE      N/A     43  41  93 S10       30.04F
WOLFFORTH 6SSW   N/A     39  39  99 S9        30.04S WCI  33
$$

TXZ031-032-036>038-042>044-210600-
TEXAS TECH WEST TEXAS MESONET/ROLLING PLAINS

CITY           SKY/WX    TMP DP  RH WIND       PRES   REMARKS
ASPERMONT 3NE    N/A     42  39  91 SE8       30.09S
FLUVANNA 3WNW    N/A     46  41  84 SE13      30.06S
GRAHAM 5SSW      N/A     44  41  90 S8        30.06S
GUTHRIE 10WSW    N/A     41  38  89 S5        30.07S
HASKELL 1NW      N/A     42  39  89 SE6       30.10S
JAYTON 1SSE      N/A     44  40  85 S7        30.08S
KNOX CITY 3NW    N/A     39  36  89 SE9       30.10S WCI  33
LK A HENRY 1NW   N/A     45  42  91 S6        30.07S
NORTHFIELD 1S    N/A     42  39  90 SE7       30.06F
ODELL 4ENE       N/A     41  40  96 SE8       30.11F
PADUCAH 10SW     N/A     40  37  90 SE6       30.06F
POST 1NE         N/A     40  39  96 S6        30.06S
SEYMOUR 3NW      N/A     41  40  93 SE10      30.10F
SPUR 1W          N/A     41  38  89 S2        30.06S
WHITE RVR 6NE    N/A     41  39  91 SE6       30.05S
$$

TXZ052-054-060>062-072-078-127-140-154-169-210600-
TEXAS TECH WEST TEXAS MESONET/PERMIAN BASIN/
CONCHO VALLEY/BIG COUNTRY/EDWARDS PLATEAU

CITY           SKY/WX    TMP DP  RH WIND       PRES   REMARKS
COYANOSA 2N      N/A     40  38  92 N2        30.08R
JUNCTION 1SSW    N/A     48  43  81 SE1       30.14S
MERTZON 3NNE     N/A     49  44  81 SE3       30.12F
SAN ANGELO 7NW   N/A     49  41  75 SE6       30.13R
STRLNG CT 4WSW   N/A     47  43  87 E3        30.11R
ST LAWRNCE 5SW   N/A     46  43  86 S18       30.08S
SWEETWATR 11SW   N/A     44  40  86 SE12      30.09S
WALL 1E          N/A     46  40  78 SE7       30.14R
$$

TXZ055-058-074-075-080-082-210600-
TEXAS TECH WEST TEXAS MESONET/FAR WEST/SOUTHWEST MOUNTAINS/TRANS PECOS

CITY           SKY/WX    TMP DP  RH WIND       PRES   REMARKS
PRSMN GAP BBNP   N/A     46  43  91 N14       30.08S
$$